Regional Weather Roundup
Issued by NWS

Home | Current Version | Previous Version | Text Only | Print | Product List | Glossary Off
Versions: 1 2 3 4 5 6 7 8 9 10 11 12 13 14 15 16 17 18 19 20 21 22 23 24 25 26 27 28 29 30 31 32 33 34 35 36 37 38 39 40 41 42 43 44 45 46 47 48 49 50

112
ASUS43 KFSD 291602
RWRSD

WEATHER ROUNDUP FOR SOUTH DAKOTA
NATIONAL WEATHER SERVICE SIOUX FALLS SD
1100 AM CDT MON AUG 29 2016

NOTE: "FAIR" INDICATES FEW OR NO CLOUDS BELOW 12,000 FEET WITH NO
SIGNIFICANT WEATHER AND/OR OBSTRUCTIONS TO VISIBILITY.


SDZ001>005-009-010-012>017-291700-
NORTHWEST AND NORTH CENTRAL SOUTH DAKOTA

CITY           SKY/WX    TMP DP  RH WIND       PRES   REMARKS
FAITH            N/A     75  56  51 NE20      30.23R
MOBRIDGE       SUNNY     77  58  51 N15G22    30.18R
$$

SDZ012>016-024>037-041>051-057-063-072>074-291700-
SOUTHWEST AND SOUTH CENTRAL SOUTH DAKOTA

CITY           SKY/WX    TMP DP  RH WIND       PRES   REMARKS
RAPID CTY ARPT SUNNY     71  54  54 N16       30.28R
PIERRE         SUNNY     78  63  59 N8        30.13R
CUSTER         SUNNY     72  47  40 NE9       30.37R
ELLSWORTH AFB  SUNNY     70  54  57 N15       30.28R
PHILIP         SUNNY     75  61  61 NE10      30.18R
PINE RIDGE     SUNNY     74  54  49 N6        30.24R
WINNER         FAIR      84  66  54 SW9       30.15R
$$

SDZ004>011-016>023-039-040-291700-
NORTHEAST SOUTH DAKOTA

CITY           SKY/WX    TMP DP  RH WIND       PRES   REMARKS
ABERDEEN       CLOUDY    71  66  84 NE9       30.15R
WATERTOWN      MOSUNNY   80  70  71 SE8       30.17R
$$

SDZ017-020-022-023-036>040-048>070-291700-
SOUTHEAST SOUTH DAKOTA

CITY           SKY/WX    TMP DP  RH WIND       PRES   REMARKS
SIOUX FALLS    PTSUNNY   79  69  71 S5        30.19R
HURON          SUNNY     81  67  62 W5        30.12R
CHAMBERLAIN    SUNNY     82  67  60 SW3       30.14S
MITCHELL       SUNNY     80  69  69 S7        30.15R
YANKTON        CLOUDY    75  66  73 E7        30.16R
$$

ABBREVIATIONS USED IN REMARKS
   TC - TEMPERATURE IN CELSIUS
  WCI - WIND CHILL INDEX
   HX - HEAT INDEX
  VSB - VISIBILITY





USA.gov is the U.S. government's official web portal to all federal, state and local government web resources and services.